Location: Unspecified
(38.3360°N, 0.0000°E)
Time: 15:53:31
(UTC+00:00)

Tiangong 2 - Visible Passes

Search period start: 21 May 2019 00:00
Search period end: 31 May 2019 00:00
Orbit: 379 x 387 km, 42.8° (Epoch: 21 May)

Date Brightness Start Highest point End Pass type
(mag) Time Alt. Az. Time Alt. Az. Time Alt. Az.
21 May 0.9 19:56:12 10° WSW 19:59:18 74° SSE 20:02:26 10° ENE visible
21 May 2.5 21:33:13 10° WNW 21:36:04 37° NNW 21:36:04 37° NNW visible
22 May 2.0 20:33:01 10° W 20:36:03 47° NNW 20:39:05 10° ENE visible
22 May 3.8 22:10:11 10° WNW 22:11:20 19° NW 22:11:20 19° NW visible
23 May 2.6 21:10:03 10° WNW 21:12:57 34° N 21:14:11 24° NE visible
24 May 2.5 20:09:50 10° WNW 20:12:47 37° N 20:15:45 10° ENE visible
24 May 2.8 21:46:52 10° WNW 21:49:04 33° NNW 21:49:04 33° NNW visible
25 May 2.5 20:46:46 10° WNW 20:49:42 35° N 20:51:42 17° ENE visible
25 May 4.2 22:23:30 10° WNW 22:23:52 13° WNW 22:23:52 13° WNW visible
26 May 2.6 19:46:37 10° WNW 19:49:31 34° N 19:52:25 10° ENE visible
26 May 1.7 21:23:28 10° WNW 21:26:26 53° N 21:26:26 53° N visible
27 May 2.2 20:23:25 10° WNW 20:26:24 40° N 20:28:58 13° E visible
27 May 3.5 22:00:07 10° WNW 22:01:08 19° WNW 22:01:08 19° WNW visible
28 May 1.0 21:00:02 10° WNW 21:03:10 81° NNE 21:03:40 59° E visible
29 May 1.7 20:00:00 10° WNW 20:03:04 52° NNE 20:06:07 10° E visible
29 May 3.0 21:36:50 10° W 21:38:22 22° WSW 21:38:22 22° WSW visible
30 May 1.2 20:36:36 10° WNW 20:39:42 60° SSW 20:40:54 32° SE visible
